[[{"header":{"parameterUnit":"m.s-1","parameterCategory":1,"la1":30.2992,"la2":30.254,"lo1":-89.0895,"lo2":-89.0443,"dy":0.0025,"dx":0.0025,"nx":19,"ny":19,"refTime":"2026-05-16T03:00:00:Z","depth":0,"parameterNumber":2,"parameterNumberName":"U-component_of_WINDS"},"data":[0,0,0,-5.7177,-5.7181,-5.738,-5.738,-5.7637,-5.7639,0,0,0,0,0,0,0,0,0,0,0,-5.7122,-5.7124,-5.7177,-5.7182,-5.7379,-5.738,-5.7637,-5.7639,0,0,0,0,0,0,0,0,0,0,0,-5.7121,-5.7124,-5.7126,-5.7182,-5.7379,-5.738,-5.7636,-5.7485,0,0,0,0,0,0,0,0,0,0,-5.7292,-5.7246,-5.7123,-5.7126,-5.7184,-5.7379,-5.738,-5.7478,-5.7494,-5.7549,0,-5.7601,0,-5.7625,-5.7657,-5.7658,0,0,0,-5.7178,-5.7232,-5.7282,-5.7127,-5.7185,-5.7379,-5.7289,-5.7487,-5.7506,-5.7572,-5.7605,-5.7614,-5.7629,-5.7659,-5.766,-5.7992,-5.7993,0,0,-5.7167,-5.716,-5.7269,-5.7294,-5.7266,-5.7283,-5.7295,-5.7498,-5.7533,-5.7606,-5.762,-5.7633,-5.766,-5.7662,-5.799,-5.7992,0,0,0,-5.7138,-5.7152,-5.7197,-5.7284,-5.7319,-5.7289,-5.7303,-5.7524,-5.7539,-5.7623,-5.7636,-5.7662,-5.7665,-5.7988,-5.7991,-5.8066,0,0,0,-5.7131,-5.7135,-5.7192,-5.719,-5.7316,-5.7425,-5.7325,-5.7525,-5.7549,-5.7635,-5.7662,-5.7668,-5.7986,-5.799,-5.806,-5.8102,0,0,0,-5.7108,-5.7133,-5.7163,-5.7189,-5.7274,-5.7422,-5.7449,-5.7531,-5.7557,-5.7658,-5.7668,-5.7985,-5.7989,-5.8055,-5.8093,-5.8185,0,0,0,-5.708,-5.7229,-5.7164,-5.7334,-5.7273,-5.7468,-5.7447,-5.7594,-5.769,-5.7663,-5.7987,-5.799,-5.8053,-5.8088,-5.8179,-5.8258,-5.8291,0,0,-5.7263,-5.725,-5.7351,-5.7299,-5.7504,-5.7439,-5.7655,-5.7749,-5.7766,-5.7915,-5.7923,-5.8062,-5.8093,-5.8183,-5.8486,-5.8512,0,0,0,-5.7406,-5.7478,-5.7534,-5.7625,-5.7702,-5.777,-5.7833,-5.7867,-5.7994,-5.7842,-5.8122,-5.814,-5.8194,-5.8231,-5.8254,-5.8298,-5.8009,-5.8008,-5.8008,-5.7652,-5.7665,-5.7831,-5.7868,-5.7957,-5.8019,-5.8091,-5.8148,-5.8137,-5.8202,-5.8245,-5.8428,-5.8472,-5.8489,-5.8535,-5.8291,-5.8292,-5.8292,-5.8292,-5.7917,-5.8019,-5.7999,-5.8153,-5.8165,-5.8294,-5.8359,-5.8346,-5.8466,-5.8397,-5.8444,-5.8364,-5.8517,-5.8558,-5.8298,-5.8297,-5.8296,-5.8296,-5.8295,-5.8077,-5.8127,-5.8168,-5.83,-5.84,-5.8432,-5.8547,-5.8555,-5.8563,-5.8611,-5.8655,-5.8653,-5.865,-5.8632,-5.8633,-5.8633,-5.8634,-5.8634,-5.8635,-5.8224,-5.8268,-5.8364,-5.8457,-5.8515,-5.8593,-5.8657,-5.8715,-5.8779,-5.8776,-5.8776,-5.8754,-5.8532,-5.8473,-5.8644,-5.8643,-5.8641,-5.8641,-5.864,-5.8482,-5.8425,-5.8574,-5.8633,-5.8741,-5.8837,-5.8847,-5.8962,-5.9011,-5.9067,-5.9036,-5.8871,-5.8858,-5.884,-5.8791,-5.9035,-5.9035,-5.9035,-5.9035,-5.8613,-5.8608,-5.8761,-5.8853,-5.8945,-5.8968,-5.9134,-5.9184,-5.9228,-5.9258,-5.9225,-5.9162,-5.9144,-5.9141,-5.9117,-5.9071,-5.9381,-5.9381,-5.9381,-5.877,-5.8774,-5.8914,-5.8956,-5.9041,-5.9113,-5.9268,-5.9373,-5.9411,-5.9395,-5.928,-5.9266,-5.9165,-5.9132,-5.9111,-5.9073,-5.899,0,0]},{"header":{"parameterUnit":"m.s-1","parameterCategory":1,"la1":30.2992,"la2":30.254,"lo1":-89.0895,"lo2":-89.0443,"dy":0.0025,"dx":0.0025,"nx":19,"ny":19,"refTime":"2026-05-16T03:00:00:Z","depth":0,"parameterNumber":3,"parameterNumberName":"V-component_of_WINDS"},"data":[0,0,0,3.4732,3.4733,3.475,3.475,3.4784,3.4784,0,0,0,0,0,0,0,0,0,0,0,3.4735,3.4735,3.4732,3.4733,3.475,3.475,3.4783,3.4784,0,0,0,0,0,0,0,0,0,0,0,3.4735,3.4735,3.4736,3.4733,3.475,3.475,3.4783,3.4766,0,0,0,0,0,0,0,0,0,0,3.4748,3.4758,3.4735,3.4736,3.4733,3.475,3.475,3.4765,3.4767,3.4781,0,3.4796,0,3.4791,3.4787,3.4787,0,0,0,3.4727,3.4756,3.4754,3.4736,3.4733,3.475,3.474,3.4766,3.4769,3.4784,3.4796,3.4797,3.4791,3.4787,3.4788,3.4887,3.4888,0,0,3.4726,3.4742,3.4752,3.4756,3.4754,3.474,3.4741,3.4767,3.4782,3.4796,3.4798,3.4792,3.4788,3.4788,3.4886,3.4887,0,0,0,3.4727,3.4742,3.4738,3.4755,3.4757,3.4741,3.4742,3.4781,3.4778,3.4798,3.4792,3.4788,3.4788,3.4885,3.4887,3.4938,0,0,0,3.4727,3.4742,3.4738,3.4748,3.4757,3.4769,3.4755,3.4776,3.4779,3.4792,3.4788,3.4789,3.4885,3.4886,3.4934,3.4959,0,0,0,3.4731,3.4743,3.4748,3.4749,3.4757,3.4768,3.4767,3.4776,3.4775,3.4787,3.4789,3.4884,3.4886,3.4932,3.4954,3.4989,0,0,0,3.4741,3.4794,3.4749,3.4806,3.4757,3.48,3.4767,3.4798,3.4814,3.4788,3.4885,3.4886,3.4931,3.4951,3.4986,3.5021,3.5037,0,0,3.4816,3.4803,3.4835,3.4796,3.4851,3.4796,3.4858,3.4858,3.4845,3.4874,3.4876,3.4935,3.4954,3.4988,3.5123,3.5136,0,0,0,3.4865,3.4888,3.4899,3.4915,3.4916,3.4919,3.4908,3.4907,3.4931,3.4863,3.4957,3.4968,3.4988,3.5003,3.5014,3.503,3.4895,3.4894,3.4894,3.4994,3.4974,3.5025,3.5007,3.5023,3.5011,3.5022,3.5019,3.4995,3.5017,3.5026,3.511,3.5129,3.5137,3.5153,3.5043,3.5043,3.5043,3.5043,3.5103,3.5132,3.5097,3.5134,3.5113,3.5144,3.5134,3.5115,3.5141,3.5102,3.5118,3.5077,3.5152,3.5165,3.5047,3.5046,3.5046,3.5046,3.5045,3.5185,3.5195,3.5194,3.5214,3.5232,3.5212,3.5238,3.5218,3.5198,3.5215,3.522,3.522,3.5215,3.5219,3.5219,3.522,3.522,3.522,3.522,3.527,3.5267,3.5291,3.5296,3.5303,3.531,3.5298,3.5304,3.5306,3.5289,3.5289,3.5262,3.5163,3.5138,3.5225,3.5224,3.5223,3.5223,3.5223,3.5386,3.5356,3.5394,3.5401,3.5405,3.5424,3.5397,3.5412,3.5414,3.5428,3.5397,3.5327,3.5313,3.5304,3.5283,3.5402,3.5402,3.5402,3.5402,3.5455,3.5445,3.5478,3.5491,3.5501,3.548,3.5523,3.5514,3.55,3.55,3.548,3.5451,3.5443,3.5433,3.5421,3.5401,3.5547,3.5548,3.5548,3.5524,3.5515,3.5555,3.554,3.5542,3.5543,3.5582,3.5598,3.5576,3.5553,3.5499,3.5493,3.5446,3.5432,3.5407,3.539,3.5353,0,0]}]]